When you browse on this site, cookies collect data to enhance your experience and personalize the content and advertising you see.
Visit our Privacy Policy to learn more. By continuing to use the site, you agree to this use of cookies and data.
  • în România
  • Lista ţărilor
  • Pe 7 zile
  • Temperatura apei
  • Hartă satelitară
  • Meteo pe hartă
  • Widget-uri
  • user-avatar
    Intrare

    Meteo pe oră la Loganiha

    Astăzi, 19 Februarie, Marţi

    Timp Temperatura Precipitaţii Vânt Presiune Umiditate
    00:00 -10°C° 0 mm 3 m/s 749 mmHg 84%
    01:00 -10°C° 0 mm 4 m/s 748 mmHg 81%
    02:00 -9°C° 0 mm 4 m/s 747 mmHg 78%
    03:00 -8°C° 0 mm 5 m/s 746 mmHg 78%
    04:00 -8°C° 0 mm 5 m/s 745 mmHg 79%
    05:00 -8°C° 0 mm 5 m/s 744 mmHg 79%
    06:00 -8°C° 0 mm 5 m/s 743 mmHg 79%
    07:00 -8°C° 0 mm 4 m/s 743 mmHg 79%
    08:00 -7°C° 0 mm 4 m/s 742 mmHg 79%
    09:00 -5°C° 0 mm 4 m/s 742 mmHg 80%
    10:00 -5°C° 0 mm 5 m/s 742 mmHg 81%
    11:00 -2°C° 0 mm 5 m/s 741 mmHg 81%
    12:00 -2°C° 0 mm 5 m/s 741 mmHg 83%
    13:00 -1°C° 0 mm 5 m/s 741 mmHg 84%
    14:00 -1°C° 0 mm 4 m/s 740 mmHg 86%
    15:00 -1°C° 0 mm 4 m/s 740 mmHg 87%
    16:00 -1°C° 0 mm 4 m/s 740 mmHg 88%
    17:00 -2°C° 0 mm 4 m/s 739 mmHg 89%
    18:00 -2°C° 0 mm 4 m/s 739 mmHg 89%
    19:00 -2°C° 0 mm 4 m/s 738 mmHg 90%
    20:00 -1°C° 0 mm 3 m/s 738 mmHg 90%
    21:00 -2°C° 0 mm 4 m/s 737 mmHg 90%
    22:00 -2°C° 0 mm 4 m/s 736 mmHg 90%
    23:00 -2°C° 0 mm 4 m/s 735 mmHg 90%

    Mâine, 20 Februarie, Miercuri

    Timp Temperatura Precipitaţii Vânt Presiune Umiditate
    00:00 -2°C° 0.1 mm 4 m/s 735 mmHg 90%
    01:00 -2°C° 0.1 mm 4 m/s 734 mmHg 89%
    02:00 -1°C° 0.1 mm 4 m/s 733 mmHg 89%
    03:00 -1°C° 0.1 mm 4 m/s 733 mmHg 89%
    04:00 -1°C° 0.1 mm 4 m/s 732 mmHg 89%
    05:00 -1°C° 0.1 mm 4 m/s 731 mmHg 89%
    06:00 -1°C° 0.2 mm 4 m/s 731 mmHg 90%
    07:00 -1°C° 0.2 mm 4 m/s 731 mmHg 91%
    08:00 -1°C° 0.2 mm 4 m/s 731 mmHg 92%
    09:00 0°C° 0 mm 4 m/s 731 mmHg 92%
    10:00 0°C° 0 mm 4 m/s 731 mmHg 91%
    11:00 0°C° 0 mm 4 m/s 731 mmHg 91%
    12:00 0°C° 0.1 mm 4 m/s 731 mmHg 91%
    13:00 0°C° 0.1 mm 4 m/s 731 mmHg 91%
    14:00 0°C° 0.1 mm 4 m/s 731 mmHg 91%
    15:00 0°C° 0.1 mm 4 m/s 731 mmHg 91%
    16:00 +1°C° 0.1 mm 3 m/s 731 mmHg 92%
    17:00 0°C° 0.1 mm 3 m/s 730 mmHg 93%
    18:00 0°C° 0.1 mm 3 m/s 730 mmHg 93%
    19:00 0°C° 0.1 mm 3 m/s 730 mmHg 92%
    20:00 0°C° 0.1 mm 3 m/s 730 mmHg 92%
    21:00 0°C° 0.1 mm 3 m/s 730 mmHg 93%
    22:00 0°C° 0.1 mm 3 m/s 730 mmHg 94%
    23:00 +1°C° 0.1 mm 2 m/s 729 mmHg 95%

    Poimâine, 21 Februarie, Joi

    Timp Temperatura Precipitaţii Vânt Presiune Umiditate
    00:00 +1°C° 0.3 mm 2 m/s 729 mmHg 95%
    01:00 -1°C° 0.3 mm 2 m/s 730 mmHg 95%
    02:00 -1°C° 0.3 mm 2 m/s 730 mmHg 95%
    03:00 -1°C° 0.4 mm 2 m/s 730 mmHg 95%
    04:00 -1°C° 0.4 mm 2 m/s 730 mmHg 95%
    05:00 -1°C° 0.4 mm 2 m/s 730 mmHg 95%
    06:00 -2°C° 0.7 mm 3 m/s 731 mmHg 94%
    07:00 -4°C° 0.7 mm 4 m/s 731 mmHg 92%
    08:00 -5°C° 0.7 mm 5 m/s 732 mmHg 91%
    09:00 -6°C° 0.3 mm 5 m/s 733 mmHg 89%
    10:00 -6°C° 0.3 mm 6 m/s 734 mmHg 88%
    11:00 -6°C° 0.3 mm 6 m/s 735 mmHg 86%
    12:00 -8°C° 0.1 mm 6 m/s 736 mmHg 84%
    13:00 -9°C° 0.1 mm 6 m/s 737 mmHg 82%
    14:00 -11°C° 0.1 mm 7 m/s 738 mmHg 80%
    15:00 -11°C° 0.1 mm 6 m/s 739 mmHg 80%
    16:00 -11°C° 0.1 mm 6 m/s 740 mmHg 79%
    17:00 -12°C° 0.1 mm 6 m/s 742 mmHg 79%
    18:00 -12°C° 0.1 mm 6 m/s 742 mmHg 78%
    19:00 -14°C° 0.1 mm 6 m/s 743 mmHg 77%
    20:00 -14°C° 0.1 mm 6 m/s 744 mmHg 76%
    21:00 -14°C° 0 mm 6 m/s 745 mmHg 76%
    22:00 -15°C° 0 mm 6 m/s 746 mmHg 76%
    23:00 -15°C° 0 mm 6 m/s 746 mmHg 76%

    22 Februarie, Vineri

    Timp Temperatura Precipitaţii Vânt Presiune Umiditate
    00:00 -16°C° 0 mm 6 m/s 747 mmHg 76%
    01:00 -16°C° 0 mm 6 m/s 747 mmHg 77%
    02:00 -16°C° 0 mm 6 m/s 748 mmHg 78%
    03:00 -16°C° 0 mm 6 m/s 749 mmHg 78%
    04:00 -17°C° 0 mm 6 m/s 749 mmHg 78%
    05:00 -17°C° 0 mm 5 m/s 750 mmHg 78%
    06:00 -17°C° 0 mm 5 m/s 750 mmHg 79%
    07:00 -17°C° 0 mm 5 m/s 750 mmHg 79%
    08:00 -17°C° 0 mm 5 m/s 751 mmHg 80%
    09:00 -15°C° 0 mm 5 m/s 751 mmHg 78%
    10:00 -15°C° 0 mm 6 m/s 751 mmHg 75%
    11:00 -15°C° 0 mm 6 m/s 751 mmHg 73%
    12:00 -15°C° 0 mm 6 m/s 751 mmHg 71%
    13:00 -14°C° 0 mm 6 m/s 752 mmHg 69%
    14:00 -14°C° 0 mm 7 m/s 752 mmHg 67%
    15:00 -15°C° 0 mm 6 m/s 752 mmHg 70%
    16:00 -15°C° 0 mm 6 m/s 753 mmHg 72%
    17:00 -16°C° 0 mm 6 m/s 754 mmHg 74%
    18:00 -16°C° 0 mm 6 m/s 754 mmHg 75%
    19:00 -15°C° 0 mm 5 m/s 755 mmHg 75%
    20:00 -15°C° 0 mm 5 m/s 755 mmHg 76%
    21:00 -15°C° 0 mm 5 m/s 756 mmHg 78%
    22:00 -17°C° 0 mm 5 m/s 756 mmHg 79%
    23:00 -17°C° 0 mm 5 m/s 756 mmHg 81%

    23 Februarie, Sâmbătă

    Timp Temperatura Precipitaţii Vânt Presiune Umiditate
    00:00 -16°C° 0 mm 4 m/s 757 mmHg 82%
    01:00 -16°C° 0 mm 4 m/s 757 mmHg 83%
    02:00 -16°C° 0 mm 4 m/s 757 mmHg 85%
    03:00 -17°C° 0 mm 4 m/s 757 mmHg 86%
    04:00 -17°C° 0 mm 4 m/s 757 mmHg 88%
    05:00 -17°C° 0 mm 4 m/s 757 mmHg 89%
    06:00 -16°C° 0 mm 3 m/s 758 mmHg 89%
    07:00 -17°C° 0 mm 3 m/s 758 mmHg 89%
    08:00 -17°C° 0 mm 3 m/s 758 mmHg 89%
    09:00 -16°C° 0 mm 3 m/s 758 mmHg 86%
    10:00 -14°C° 0 mm 3 m/s 759 mmHg 83%
    11:00 -12°C° 0 mm 2 m/s 759 mmHg 80%
    12:00 -10°C° 0 mm 2 m/s 759 mmHg 79%
    13:00 -10°C° 0 mm 2 m/s 759 mmHg 78%
    14:00 -9°C° 0 mm 2 m/s 759 mmHg 77%
    15:00 -9°C° 0 mm 2 m/s 759 mmHg 81%
    16:00 -9°C° 0 mm 1 m/s 759 mmHg 86%
    17:00 -10°C° 0 mm 1 m/s 759 mmHg 90%
    18:00 -10°C° 0 mm 1 m/s 759 mmHg 90%
    19:00 -10°C° 0 mm 1 m/s 759 mmHg 90%
    20:00 -10°C° 0 mm 1 m/s 759 mmHg 90%
    21:00 -12°C° 0 mm 2 m/s 759 mmHg 89%
    22:00 -12°C° 0 mm 2 m/s 759 mmHg 87%
    23:00 -10°C° 0 mm 2 m/s 759 mmHg 86%

    24 Februarie, Duminică

    Timp Temperatura Precipitaţii Vânt Presiune Umiditate
    00:00 -12°C° 0 mm 2 m/s 759 mmHg 89%
    01:00 -12°C° 0 mm 2 m/s 759 mmHg 91%
    02:00 -12°C° 0 mm 2 m/s 759 mmHg 93%
    03:00 -12°C° 0 mm 2 m/s 759 mmHg 94%
    04:00 -12°C° 0 mm 2 m/s 758 mmHg 95%
    05:00 -12°C° 0 mm 2 m/s 758 mmHg 96%
    06:00 -10°C° 0 mm 2 m/s 758 mmHg 95%
    07:00 -10°C° 0 mm 2 m/s 758 mmHg 95%
    08:00 -9°C° 0 mm 2 m/s 759 mmHg 94%
    09:00 -8°C° 0 mm 2 m/s 758 mmHg 93%
    10:00 -7°C° 0 mm 2 m/s 758 mmHg 91%
    11:00 -6°C° 0 mm 2 m/s 758 mmHg 89%
    12:00 -7°C° 0 mm 3 m/s 758 mmHg 89%
    13:00 -6°C° 0 mm 3 m/s 757 mmHg 89%
    14:00 -6°C° 0 mm 3 m/s 757 mmHg 89%
    15:00 -5°C° 0 mm 3 m/s 757 mmHg 90%
    16:00 -5°C° 0 mm 3 m/s 756 mmHg 91%
    17:00 -5°C° 0 mm 3 m/s 756 mmHg 92%
    18:00 -4°C° 0.1 mm 3 m/s 755 mmHg 93%
    19:00 -4°C° 0.1 mm 3 m/s 755 mmHg 93%
    20:00 -4°C° 0.1 mm 3 m/s 754 mmHg 93%
    21:00 -4°C° 0.2 mm 4 m/s 754 mmHg 93%
    22:00 -4°C° 0.2 mm 4 m/s 753 mmHg 93%
    23:00 -3°C° 0.2 mm 4 m/s 752 mmHg 93%
    Arată mai mult